Simultaneous Nadir Overpasses (SNOs) Predictions

Prediction of SNOs between GOES-14 and AQUA Satellite Orbit:

Table of predicted SNOs for the next 14.0 days since TLE Epoch: 1/2/2021
Index Date Time (GOES-14) GOES-14 Lat,Lon AQUA Lat,Lon Distance(km) Time Diff (sec)
1 01/02/2021 08:47:51 -0.08,-104.36 0.60,-107.69 377.53 80
2 01/04/2021 08:35:39 -0.08,-104.36 0.01,-104.72 41.41 80
3 01/06/2021 08:20:48 -0.08,-104.36 -0.65,-101.77 294.90 80
4 01/06/2021 20:42:11 0.09,-104.07 -0.55,-106.94 327.20 80
5 01/08/2021 20:32:40 0.08,-104.07 0.11,-103.99 9.32 80
6 01/10/2021 20:20:28 0.07,-104.07 0.72,-101.03 345.33 80
7 01/11/2021 08:39:04 -0.07,-104.35 0.32,-106.20 209.36 80
8 01/13/2021 08:29:32 -0.07,-104.35 -0.29,-103.23 126.74 80
9 01/13/2021 20:50:56 0.07,-104.06 -0.84,-108.42 495.45 80
10 01/15/2021 08:17:20 -0.06,-104.35 -0.91,-100.27 463.10 80
11 01/15/2021 20:38:44 0.07,-104.06 -0.21,-105.46 158.93 80
